| time (UTC) | temp F | wind direction | speed MPH | gust MPH | rain 1hr in | rain 24hr in | rain mn in | humidity % | barometer mb |
| 20260505052044 | 50 | 117 | 3.0 | 4.0 | 0.02 | 0.08 | 0.02 | 90 | 1015.9 |
| 20260505051109 | 50 | 118 | 3.0 | 4.0 | 0.01 | 0.07 | 0.01 | 90 | 1016.0 |
| 20260505041021 | 50 | 92 | 3.0 | 7.0 | 0.00 | 0.06 | 0.00 | 89 | 1016.0 |
| 20260505040044 | 50 | 109 | 3.0 | 6.0 | 0.00 | 0.06 | 0.00 | 90 | 1016.0 |
| 20260505035108 | 50 | 97 | 3.0 | 6.0 | 0.00 | 0.06 | 0.00 | 91 | 1016.1 |
| 20260505034048 | 50 | 113 | 3.0 | 4.0 | 0.00 | 0.06 | 0.00 | 91 | 1016.1 |
| 20260505033133 | 50 | 116 | 3.0 | 6.0 | 0.00 | 0.06 | 0.00 | 91 | 1016.0 |
| 20260505032116 | 50 | 125 | 5.0 | 8.0 | 0.00 | 0.06 | 0.00 | 91 | 1016.3 |
| 20260505031036 | 50 | 127 | 3.0 | 6.0 | 0.00 | 0.06 | 0.00 | 91 | 1016.2 |
| 20260505030100 | 50 | 123 | 3.0 | 6.0 | 0.00 | 0.06 | 0.00 | 91 | 1016.1 |
| 20260505025041 | 50 | 90 | 2.0 | 3.0 | 0.00 | 0.06 | 0.00 | 91 | 1016.4 |
| 20260505024044 | 50 | 104 | 3.0 | 6.0 | 0.00 | 0.06 | 0.00 | 91 | 1016.3 |
| 20260505023109 | 50 | 111 | 3.0 | 6.0 | 0.00 | 0.06 | 0.00 | 91 | 1016.3 |
| 20260505022028 | 50 | 122 | 4.0 | 6.0 | 0.00 | 0.06 | 0.00 | 90 | 1016.2 |
| 20260505021053 | 50 | 118 | 3.0 | 6.0 | 0.00 | 0.06 | 0.00 | 90 | 1016.3 |
| 20260505020117 | 50 | 118 | 3.0 | 7.0 | 0.00 | 0.07 | 0.00 | 90 | 1016.5 |
| 20260505015057 | 51 | 124 | 3.0 | 6.0 | 0.00 | 0.07 | 0.00 | 89 | 1016.5 |
| 20260505014100 | 51 | 127 | 3.0 | 6.0 | 0.00 | 0.07 | 0.00 | 89 | 1016.5 |
| 20260505013021 | 51 | 135 | 3.0 | 4.0 | 0.00 | 0.07 | 0.00 | 89 | 1016.7 |
| 20260505012105 | 51 | 132 | 3.0 | 4.0 | 0.00 | 0.07 | 0.00 | 89 | 1016.7 |
| 20260505011108 | 51 | 142 | 3.0 | 6.0 | 0.00 | 0.07 | 0.00 | 89 | 1016.6 |
| 20260505010029 | 51 | 131 | 3.0 | 6.0 | 0.00 | 0.07 | 0.00 | 90 | 1016.7 |
| 20260505005053 | 51 | 108 | 2.0 | 3.0 | 0.00 | 0.07 | 0.00 | 90 | 1016.9 |
| 20260505004116 | 51 | 105 | 2.0 | 3.0 | 0.00 | 0.07 | 0.00 | 90 | 1016.9 |
| 20260505003036 | 51 | 91 | 2.0 | 3.0 | 0.00 | 0.07 | 0.00 | 90 | 1016.9 |
| 20260505002141 | 51 | 73 | 1.0 | 6.0 | 0.00 | 0.07 | 0.00 | 90 | 1017.0 |
| 20260505001041 | 51 | 123 | 2.0 | 4.0 | 0.00 | 0.07 | 0.00 | 91 | 1017.0 |
| 20260505000045 | 51 | 148 | 4.0 | 6.0 | 0.00 | 0.07 | 0.00 | 91 | 1017.1 |
| 20260504235109 | 51 | 118 | 3.0 | 6.0 | 0.00 | 0.07 | 0.00 | 91 | 1017.1 |
| 20260504234029 | 51 | 141 | 3.0 | 4.0 | 0.00 | 0.07 | 0.00 | 91 | 1017.1 |
| 20260504233053 | 51 | 138 | 3.0 | 4.0 | 0.00 | 0.07 | 0.00 | 91 | 1017.2 |
| 20260504232116 | 51 | 146 | 3.0 | 4.0 | 0.00 | 0.07 | 0.00 | 91 | 1017.2 |
| 20260504231036 | 51 | 109 | 2.0 | 3.0 | 0.00 | 0.07 | 0.00 | 91 | 1017.3 |
| 20260504230121 | 51 | 116 | 2.0 | 3.0 | 0.00 | 0.07 | 0.00 | 91 | 1017.4 |
| 20260504225021 | 51 | 126 | 3.0 | 4.0 | 0.00 | 0.07 | 0.00 | 91 | 1017.3 |
| 20260504224044 | 51 | 108 | 2.0 | 4.0 | 0.00 | 0.07 | 0.00 | 92 | 1017.3 |
| 20260504223108 | 51 | 123 | 3.0 | 3.0 | 0.00 | 0.07 | 0.00 | 92 | 1017.3 |
| 20260504222029 | 51 | 128 | 3.0 | 6.0 | 0.00 | 0.07 | 0.00 | 91 | 1017.4 |
| 20260504221053 | 51 | 115 | 2.0 | 4.0 | 0.00 | 0.07 | 0.00 | 91 | 1017.4 |
| 20260504220137 | 51 | 105 | 2.0 | 4.0 | 0.00 | 0.07 | 0.00 | 91 | 1017.5 |
| 20260504215036 | 52 | 136 | 3.0 | 7.0 | 0.00 | 0.07 | 0.07 | 90 | 1017.5 |
| 20260504214121 | 52 | 129 | 3.0 | 6.0 | 0.00 | 0.07 | 0.07 | 90 | 1017.7 |
| 20260504213020 | 52 | 143 | 3.0 | 4.0 | 0.00 | 0.07 | 0.07 | 90 | 1017.6 |
| 20260504212125 | 52 | 140 | 3.0 | 7.0 | 0.00 | 0.07 | 0.07 | 90 | 1017.7 |
| 20260504211109 | 53 | 105 | 2.0 | 4.0 | 0.00 | 0.07 | 0.07 | 89 | 1017.6 |
| 20260504210028 | 53 | 106 | 3.0 | 6.0 | 0.00 | 0.07 | 0.07 | 88 | 1017.6 |
| 20260504205113 | 53 | 136 | 3.0 | 6.0 | 0.00 | 0.07 | 0.07 | 86 | 1017.6 |
| 20260504204118 | 53 | 61 | 1.0 | 2.0 | 0.00 | 0.07 | 0.07 | 83 | 1017.5 |
| 20260504203037 | 53 | 80 | 1.0 | 2.0 | 0.00 | 0.07 | 0.07 | 83 | 1017.3 |
| 20260504202101 | 53 | 83 | 1.0 | 2.0 | 0.00 | 0.07 | 0.07 | 83 | 1017.4 |
| 20260504201020 | 53 | 89 | 1.0 | 3.0 | 0.00 | 0.07 | 0.07 | 81 | 1017.4 |
| 20260504200107 | 53 | 354 | 2.0 | 6.0 | 0.00 | 0.07 | 0.07 | 81 | 1017.3 |
| 20260504195109 | 53 | 338 | 2.0 | 7.0 | 0.00 | 0.07 | 0.07 | 82 | 1017.2 |
| 20260504194028 | 53 | 330 | 4.0 | 8.0 | 0.02 | 0.07 | 0.07 | 84 | 1017.0 |
| 20260504193052 | 54 | 298 | 5.0 | 8.0 | 0.02 | 0.07 | 0.07 | 84 | 1016.9 |
| 20260504192116 | 54 | 312 | 4.0 | 7.0 | 0.02 | 0.07 | 0.07 | 83 | 1016.8 |
| 20260504191036 | 54 | 315 | 3.0 | 7.0 | 0.02 | 0.07 | 0.07 | 83 | 1016.8 |
| 20260504190101 | 54 | 153 | 3.0 | 6.0 | 0.02 | 0.07 | 0.07 | 83 | 1016.7 |
| 20260504185020 | 53 | 347 | 4.0 | 8.0 | 0.02 | 0.07 | 0.07 | 81 | 1016.6 |
| 20260504184044 | 56 | 289 | 6.0 | 17.0 | 0.00 | 0.05 | 0.05 | 77 | 1016.6 |
| 20260504183108 | 56 | 275 | 3.0 | 7.0 | 0.00 | 0.05 | 0.05 | 76 | 1016.6 |
| 20260504182028 | 56 | 322 | 3.0 | 7.0 | 0.00 | 0.05 | 0.05 | 75 | 1016.4 |
| 20260504181133 | 56 | 354 | 3.0 | 8.0 | 0.00 | 0.05 | 0.05 | 74 | 1016.5 |
| 20260504180116 | 57 | 298 | 4.0 | 11.0 | 0.00 | 0.05 | 0.05 | 72 | 1016.6 |
| 20260504175036 | 58 | 332 | 2.0 | 7.0 | 0.00 | 0.05 | 0.05 | 70 | 1016.6 |
| 20260504174101 | 59 | 314 | 3.0 | 8.0 | 0.00 | 0.05 | 0.05 | 69 | 1016.5 |
| 20260504173041 | 58 | 308 | 3.0 | 11.0 | 0.00 | 0.05 | 0.05 | 70 | 1016.6 |
| 20260504172044 | 58 | 313 | 4.0 | 9.0 | 0.00 | 0.05 | 0.05 | 71 | 1016.6 |
| 20260504171108 | 56 | 315 | 4.0 | 7.0 | 0.00 | 0.05 | 0.05 | 75 | 1016.5 |
| 20260504151037 | 57 | 319 | 4.0 | 10.0 | 0.00 | 0.02 | 0.02 | 78 | 1016.4 |
| 20260504141053 | 56 | 301 | 4.0 | 10.0 | 0.00 | 0.02 | 0.02 | 79 | 1016.8 |
| 20260504140116 | 57 | 278 | 4.0 | 11.0 | 0.00 | 0.02 | 0.02 | 76 | 1016.5 |
| 20260504100117 | 57 | 333 | 3.0 | 7.0 | 0.00 | 0.01 | 0.01 | 75 | 1016.6 |
| 20260504090109 | 57 | 272 | 5.0 | 11.0 | 0.00 | 0.01 | 0.01 | 70 | 1016.5 |
| 20260504081020 | 53 | 126 | 3.0 | 6.0 | 0.00 | 0.01 | 0.01 | 88 | 1016.4 |
| 20260504070120 | 50 | 100 | 1.0 | 3.0 | 0.00 | 0.02 | 0.01 | 93 | 1016.3 |
| 20260504060117 | 49 | 89 | 2.0 | 3.0 | 0.00 | 0.02 | 0.01 | 94 | 1015.9 |